User: anonymous   Login
Location: Columbia
(38.9520°N, 92.3340°W)
Time: 16:58:18
(UTC-05:00)
Language:

Cosmos 1603 - Orbit

View from above orbital plane
View from above orbital plane
View from above satellite
View from above satellite

Ground track
Ground track

The orbit data is extracted from the following two-line orbital elements,

1 15333U 84106A   15216.09561403 -.00000224  00000-0 -92927-4 0  9990
2 15333 071.0272 082.6909 0019065 174.2316 344.6434 14.14010928591705
Epoch (UTC): 04 August 2015 02:17:41
Eccentricity: 0.0019065
inclination: 71.0272°
perigee height: 832 km
apogee height: 859 km
right ascension of ascending node: 82.6909°
argument of perigee: 174.2316°
revolutions per day: 14.14010928
mean anomaly at epoch: 344.6434°
orbit number at epoch: 59170

The dashed part of the orbit path shows where the satellite is in the earth's shadow,  

DLR